GW2166 Weather Reports


Display with metric or nautical units.
time (UTC)temp
F
wind
direction
speed
MPH
gust
MPH
rain 1hr
in
rain 24hr
in
rain mn
in
humidity
%
barometer
mb
20260507193202 69 203 9.0 19.0 0.00 0.00 0.00 53 1012.8
20260507190204 68 192 10.0 21.0 0.00 0.00 0.00 55 1013.1
20260507185702 68 213 9.0 21.0 0.00 0.00 0.00 55 1013.2
20260507184703 67 200 9.0 20.0 0.00 0.00 0.00 56 1013.3
20260507184203 67 235 10.0 20.0 0.00 0.00 0.00 56 1013.4
20260507183202 67 220 11.0 20.0 0.00 0.00 0.00 56 1013.7
20260507182702 67 228 9.0 19.0 0.00 0.00 0.00 58 1013.6
20260507182202 67 220 8.0 19.0 0.00 0.00 0.00 58 1013.9
20260507181702 66 204 9.0 19.0 0.00 0.00 0.00 58 1014.0
20260507181202 66 233 10.0 21.0 0.00 0.00 0.00 58 1014.0
20260507180702 65 224 8.0 21.0 0.00 0.00 0.00 59 1014.1
20260507180202 65 258 9.0 24.0 0.00 0.00 0.00 61 1014.2
20260507175703 65 217 10.0 24.0 0.00 0.00 0.00 59 1014.2
20260507175202 64 199 7.0 19.0 0.00 0.00 0.00 61 1014.3
20260507174702 65 221 10.0 19.0 0.00 0.00 0.00 58 1014.5
20260507173204 64 226 10.0 18.0 0.00 0.00 0.00 61 1014.7
20260507172703 64 213 9.0 18.0 0.00 0.00 0.00 58 1014.8
20260507172201 64 233 9.0 18.0 0.00 0.00 0.00 60 1014.9
20260507171703 64 231 9.0 26.0 0.00 0.00 0.00 60 1015.1
20260507170702 64 234 7.0 17.0 0.00 0.00 0.00 63 1015.1
20260507170202 63 202 6.0 16.0 0.00 0.00 0.00 61 1015.1
20260507165702 63 237 9.0 19.0 0.00 0.00 0.00 64 1015.2
20260507165202 63 186 8.0 19.0 0.00 0.00 0.00 60 1015.2
20260507163703 63 219 8.0 21.0 0.00 0.00 0.00 64 1015.5
20260507163201 63 212 11.0 21.0 0.00 0.00 0.00 63 1015.6
20260507162702 62 228 6.0 19.0 0.00 0.00 0.00 66 1015.5
20260507162203 62 266 8.0 19.0 0.00 0.00 0.00 65 1015.6
20260507161703 61 175 7.0 13.0 0.00 0.00 0.00 64 1015.8
20260507160702 62 224 6.0 15.0 0.00 0.00 0.00 61 1015.8
20260507160202 62 213 6.0 21.0 0.00 0.00 0.00 63 1015.8
20260507155702 62 204 6.0 21.0 0.00 0.00 0.00 63 1015.7
20260507155202 62 240 10.0 20.0 0.00 0.00 0.00 63 1015.6
20260507154702 62 231 11.0 20.0 0.00 0.00 0.00 64 1015.8
20260507154203 62 274 6.0 14.0 0.00 0.00 0.00 65 1015.7
20260507153702 61 257 7.0 14.0 0.00 0.00 0.00 66 1015.9
20260507153202 61 243 7.0 20.0 0.00 0.00 0.00 69 1015.9
20260507152703 61 200 7.0 20.0 0.00 0.00 0.00 68 1016.0
20260507152202 61 238 5.0 13.0 0.00 0.00 0.00 69 1016.2
20260507151703 60 264 4.0 18.0 0.00 0.00 0.00 69 1016.2
20260507151203 60 226 5.0 18.0 0.00 0.00 0.00 69 1016.3
20260507150701 60 245 8.0 14.0 0.00 0.00 0.00 68 1016.2
20260507150202 60 203 7.0 15.0 0.00 0.00 0.00 69 1016.1
20260507145702 60 190 8.0 15.0 0.00 0.00 0.00 69 1016.2
20260507145202 59 212 5.0 11.0 0.00 0.00 0.00 72 1016.2
20260507144702 59 237 5.0 12.0 0.00 0.00 0.00 70 1016.2
20260507144201 58 305 3.0 12.0 0.00 0.00 0.00 71 1016.3
20260507143702 58 230 6.0 14.0 0.00 0.00 0.00 72 1016.3
20260507143203 58 202 7.0 14.0 0.00 0.00 0.00 72 1016.3
20260507142203 57 204 5.0 12.0 0.00 0.00 0.00 75 1016.2
20260507141703 56 227 4.0 11.0 0.00 0.00 0.00 76 1016.4
20260507141202 56 241 4.0 11.0 0.00 0.00 0.00 77 1016.3
20260507140202 55 207 4.0 10.0 0.00 0.00 0.00 80 1016.5
20260507135702 54 188 3.0 9.0 0.00 0.00 0.00 83 1016.6
20260507135202 53 244 3.0 9.0 0.00 0.00 0.00 82 1016.6
20260507134701 52 258 3.0 7.0 0.00 0.00 0.00 85 1016.6
20260507134202 52 195 4.0 10.0 0.00 0.00 0.00 87 1016.5
20260507133702 51 248 4.0 10.0 0.00 0.00 0.00 89 1016.6
20260507133202 50 176 3.0 9.0 0.00 0.00 0.00 91 1016.5
20260507132701 49 206 4.0 7.0 0.00 0.00 0.00 93 1016.5
20260507132202 49 206 4.0 7.0 0.00 0.00 0.00 95 1016.5
20260507131703 48 237 2.0 6.0 0.00 0.00 0.00 96 1016.6
20260507131202 47 172 2.0 5.0 0.00 0.00 0.00 95 1016.6
20260507130702 47 207 3.0 5.0 0.00 0.00 0.00 96 1016.5
20260507130202 46 216 1.0 5.0 0.00 0.00 0.00 96 1016.6
20260507125202 45 224 2.0 4.0 0.00 0.00 0.00 95 1016.7
20260507124702 44 212 1.0 3.0 0.00 0.00 0.00 95 1016.6
20260507123702 43 199 1.0 3.0 0.00 0.00 0.00 95 1016.7
20260507122703 42 199 0.0 2.0 0.00 0.00 0.00 95 1016.7
20260507121702 40 199 0.0 1.0 0.00 0.00 0.00 95 1016.7
20260507120702 39 199 0.0 0.0 0.00 0.00 0.00 94 1016.6
20260507120202 39 199 0.0 0.0 0.00 0.00 0.00 94 1016.7
20260507115702 38 199 0.0 0.0 0.00 0.00 0.00 94 1016.7
20260507115202 38 199 0.0 0.0 0.00 0.00 0.00 94 1016.6
20260507114702 38 199 0.0 0.0 0.00 0.00 0.00 93 1016.6
20260507114202 38 199 0.0 0.0 0.00 0.00 0.00 93 1016.5
20260507113704 38 199 0.0 0.0 0.00 0.00 0.00 93 1016.5
20260507113202 38 199 0.0 0.0 0.00 0.00 0.00 93 1016.6
20260507112702 38 199 0.0 2.0 0.00 0.00 0.00 93 1016.5
20260507112202 38 199 0.0 2.0 0.00 0.00 0.00 93 1016.5
20260507111702 37 199 0.0 2.0 0.00 0.00 0.00 93 1016.6
20260507111202 37 199 1.0 2.0 0.00 0.00 0.00 93 1016.5
20260507110702 38 199 1.0 2.0 0.00 0.00 0.00 93 1016.5
20260507110202 38 199 1.0 2.0 0.00 0.00 0.00 93 1016.4
20260507105702 38 199 0.0 1.0 0.00 0.00 0.00 93 1016.4
20260507105202 38 199 0.0 0.0 0.00 0.00 0.00 93 1016.4
20260507104202 38 199 0.0 0.0 0.00 0.00 0.00 92 1016.3
20260507103703 38 199 0.0 1.0 0.00 0.00 0.00 92 1016.3
20260507103201 38 199 0.0 2.0 0.00 0.00 0.00 92 1016.4
20260507102702 38 199 0.0 2.0 0.00 0.00 0.00 92 1016.4
20260507102202 38 199 0.0 2.0 0.00 0.00 0.00 92 1016.4
20260507101702 38 199 1.0 2.0 0.00 0.00 0.00 92 1016.5
20260507100201 38 199 0.0 0.0 0.00 0.00 0.00 92 1016.5
20260507095202 38 199 0.0 0.0 0.00 0.00 0.00 93 1016.6
20260507094705 39 199 0.0 0.0 0.00 0.00 0.00 92 1016.6
20260507094201 39 199 0.0 0.0 0.00 0.00 0.00 92 1016.6
20260507093702 39 199 0.0 1.0 0.00 0.00 0.00 92 1016.7
20260507092702 39 199 0.0 0.0 0.00 0.00 0.00 92 1016.7
20260507092202 39 199 0.0 0.0 0.00 0.00 0.00 92 1016.7
20260507091702 39 199 0.0 0.0 0.00 0.00 0.00 93 1016.7
20260507091202 39 199 0.0 1.0 0.00 0.00 0.00 92 1016.8
20260507090202 40 199 1.0 3.0 0.00 0.00 0.00 92 1016.8
20260507085702 40 192 0.0 0.0 0.00 0.00 0.00 92 1016.7
20260507085201 40 192 0.0 1.0 0.00 0.00 0.00 93 1016.8
20260507084702 40 192 0.0 1.0 0.00 0.00 0.00 93 1016.8
20260507084202 40 192 0.0 3.0 0.00 0.00 0.00 93 1016.8
20260507083702 40 192 1.0 3.0 0.00 0.00 0.00 93 1016.7
20260507083201 40 192 1.0 3.0 0.00 0.00 0.00 93 1016.8
20260507082702 40 192 1.0 3.0 0.00 0.00 0.00 92 1016.8
20260507082202 40 192 1.0 5.0 0.00 0.00 0.00 92 1016.8
20260507081704 40 199 2.0 5.0 0.00 0.00 0.00 92 1016.8
20260507080702 40 202 2.0 4.0 0.00 0.00 0.00 92 1016.9
20260507075702 40 250 1.0 2.0 0.00 0.00 0.00 91 1016.9
20260507075203 40 333 0.0 2.0 0.00 0.00 0.00 91 1016.9
20260507074702 41 333 0.0 0.0 0.00 0.00 0.00 91 1016.9
20260507074202 41 333 0.0 0.0 0.00 0.00 0.00 91 1017.0
20260507073702 41 333 0.0 0.0 0.00 0.00 0.00 92 1017.0
20260507073202 41 333 0.0 0.0 0.00 0.00 0.00 92 1017.0
20260507072703 41 333 0.0 0.0 0.00 0.00 0.00 92 1017.0
20260507072201 41 333 0.0 0.0 0.00 0.00 0.00 92 1017.0
20260507071702 42 333 0.0 1.0 0.00 0.00 0.00 92 1017.1
20260507071202 42 333 0.0 1.0 0.00 0.00 0.00 92 1017.1
20260507070203 42 333 0.0 1.0 0.00 0.00 0.00 92 1017.3
20260507065702 42 333 0.0 0.0 0.00 0.00 0.00 92 1017.3
20260507065203 42 333 0.0 0.0 0.00 0.00 0.00 92 1017.3
20260507064202 42 333 0.0 0.0 0.00 0.00 0.00 92 1017.5
20260507063201 42 333 0.0 0.0 0.00 0.00 0.00 92 1017.4
20260507062703 42 333 0.0 0.0 0.00 0.00 0.00 92 1017.4
20260507061702 42 333 0.0 0.0 0.00 0.01 0.00 92 1017.5
20260507061202 42 333 0.0 0.0 0.00 0.01 0.00 92 1017.6
20260507060702 42 333 0.0 0.0 0.00 0.01 0.00 92 1017.5
20260507055703 42 333 0.0 0.0 0.00 0.02 0.00 92 1017.5
20260507055203 41 333 0.0 0.0 0.00 0.02 0.00 92 1017.5
20260507054703 41 333 0.0 0.0 0.00 0.02 0.00 92 1017.5
20260507053702 41 333 0.0 0.0 0.00 0.02 0.00 91 1017.6
20260507053202 41 333 0.0 0.0 0.00 0.02 0.00 91 1017.5
20260507052702 41 333 0.0 0.0 0.00 0.02 0.00 91 1017.5
20260507052202 41 333 0.0 0.0 0.00 0.02 0.00 90 1017.6
20260507051702 41 333 0.0 0.0 0.00 0.02 0.00 90 1017.5
20260507051203 41 333 0.0 0.0 0.00 0.02 0.00 89 1017.5
20260507050703 41 333 0.0 0.0 0.00 0.02 0.00 88 1017.6
20260507050201 41 333 0.0 0.0 0.00 0.02 0.00 88 1017.5
20260507045701 41 333 0.0 0.0 0.00 0.02 0.02 88 1017.5
20260507045202 41 333 0.0 0.0 0.00 0.02 0.02 87 1017.4
20260507044702 41 333 0.0 0.0 0.00 0.02 0.02 88 1017.4
20260507044203 41 333 0.0 0.0 0.00 0.02 0.02 88 1017.5
20260507043701 41 333 0.0 0.0 0.00 0.02 0.02 87 1017.6
20260507042702 42 333 0.0 0.0 0.00 0.02 0.02 87 1017.7
20260507041704 42 333 0.0 0.0 0.00 0.02 0.02 88 1017.7
20260507041202 42 333 0.0 0.0 0.00 0.02 0.02 88 1017.6
20260507040702 42 333 0.0 0.0 0.00 0.02 0.02 87 1017.4
20260507040202 42 333 0.0 0.0 0.00 0.02 0.02 87 1017.5
20260507035702 42 333 0.0 0.0 0.00 0.02 0.02 86 1017.6
20260507035202 42 333 0.0 0.0 0.00 0.02 0.02 87 1017.8
20260507034702 42 333 0.0 0.0 0.00 0.02 0.02 86 1018.1
20260507034202 42 333 0.0 0.0 0.00 0.02 0.02 85 1018.1
20260507033702 42 333 0.0 0.0 0.00 0.02 0.02 84 1017.9
20260507032702 42 333 0.0 0.0 0.00 0.02 0.02 84 1018.1
20260507031703 42 333 0.0 0.0 0.00 0.02 0.02 83 1017.7
20260507031202 43 333 0.0 0.0 0.00 0.02 0.02 82 1017.7
20260507030203 43 333 0.0 0.0 0.00 0.02 0.02 82 1017.6
20260507025202 43 333 0.0 0.0 0.00 0.02 0.02 81 1017.6
20260507024202 44 333 0.0 0.0 0.00 0.02 0.02 80 1017.5
20260507023702 44 333 0.0 0.0 0.00 0.02 0.02 80 1017.5
20260507023203 45 333 0.0 0.0 0.00 0.02 0.02 80 1017.5
20260507022702 45 333 0.0 0.0 0.00 0.02 0.02 79 1017.4
20260507022203 46 333 0.0 0.0 0.00 0.02 0.02 79 1017.4
20260507021202 47 333 0.0 0.0 0.00 0.02 0.02 77 1017.2
20260507020702 47 333 0.0 0.0 0.00 0.02 0.02 76 1017.2
20260507020203 48 333 0.0 0.0 0.00 0.02 0.02 75 1017.2
20260507015202 49 333 0.0 0.0 0.00 0.02 0.02 73 1017.0
20260507014702 50 333 0.0 2.0 0.00 0.02 0.02 72 1017.1
20260507014203 50 333 0.0 2.0 0.00 0.02 0.02 71 1017.0
20260507013202 52 333 1.0 2.0 0.00 0.02 0.02 67 1016.9
20260507012702 53 333 0.0 1.0 0.00 0.02 0.02 64 1017.0
20260507012203 54 333 0.0 1.0 0.00 0.02 0.02 61 1017.0
20260507011702 55 333 0.0 1.0 0.00 0.02 0.02 58 1017.0
20260507011202 55 333 0.0 1.0 0.00 0.02 0.02 56 1016.9
20260507010702 56 333 0.0 3.0 0.00 0.02 0.02 54 1016.9
20260507010201 56 333 1.0 3.0 0.00 0.02 0.02 51 1016.8
20260507005203 56 353 2.0 5.0 0.00 0.02 0.02 47 1016.7
20260507004202 57 344 3.0 5.0 0.00 0.02 0.02 46 1016.7
20260507003702 57 0 2.0 6.0 0.00 0.02 0.02 45 1016.8
20260507003203 57 357 3.0 11.0 0.00 0.02 0.02 44 1016.7
20260507002202 58 343 2.0 9.0 0.00 0.02 0.02 45 1016.7
20260507001702 58 348 4.0 9.0 0.00 0.02 0.02 45 1016.8
20260507001202 58 347 4.0 9.0 0.00 0.02 0.02 43 1016.8
20260507000204 58 320 6.0 11.0 0.00 0.02 0.02 41 1016.7
20260506235702 59 0 7.0 11.0 0.00 0.02 0.02 41 1016.7
20260506235201 59 336 5.0 12.0 0.00 0.02 0.02 40 1016.7
20260506234702 59 0 7.0 13.0 0.00 0.02 0.02 40 1016.7
20260506234202 59 355 8.0 13.0 0.00 0.02 0.02 41 1016.6
20260506233702 59 0 7.0 12.0 0.00 0.02 0.02 42 1016.7
20260506233202 60 331 7.0 12.0 0.00 0.02 0.02 41 1016.8
20260506232703 60 348 6.0 9.0 0.00 0.02 0.02 42 1016.7
20260506232202 60 330 5.0 12.0 0.00 0.02 0.02 42 1016.6
20260506231702 60 292 8.0 13.0 0.00 0.02 0.02 40 1016.7
20260506231202 60 313 7.0 13.0 0.00 0.02 0.02 44 1016.7
20260506230702 60 0 6.0 15.0 0.00 0.02 0.02 41 1016.7
20260506230201 60 334 9.0 15.0 0.00 0.02 0.02 41 1016.7
20260506225659 60 355 7.0 15.0 0.00 0.02 0.02 42 1016.7
20260506225158 60 323 6.0 15.0 0.00 0.02 0.02 42 1016.7
20260506224659 60 0 6.0 14.0 0.00 0.02 0.02 42 1016.6
20260506223657 60 289 9.0 14.0 0.00 0.02 0.02 43 1016.6
20260506223157 60 348 4.0 17.0 0.00 0.02 0.02 42 1016.7
20260506222655 60 0 5.0 17.0 0.00 0.02 0.02 43 1016.6
20260506222155 60 0 6.0 12.0 0.00 0.02 0.02 46 1016.6
20260506221655 60 10 8.0 14.0 0.00 0.02 0.02 42 1016.6
20260506221154 60 31 8.0 14.0 0.00 0.02 0.02 42 1016.7
20260506220654 60 354 9.0 14.0 0.00 0.02 0.02 45 1016.6
20260506215650 60 333 3.0 12.0 0.00 0.02 0.02 44 1016.7
20260506215151 60 329 7.0 15.0 0.00 0.02 0.02 42 1016.8
20260506214651 60 0 6.0 15.0 0.00 0.02 0.02 43 1016.8
20260506214149 61 0 10.0 15.0 0.00 0.02 0.02 43 1016.9
20260506213149 60 302 5.0 13.0 0.00 0.02 0.02 47 1017.0
20260506211647 60 316 6.0 13.0 0.00 0.02 0.02 45 1017.1
20260506211145 60 334 3.0 14.0 0.00 0.02 0.02 46 1017.1
20260506210645 60 350 5.0 15.0 0.00 0.02 0.02 44 1017.3
20260506210147 60 343 8.0 15.0 0.00 0.02 0.02 42 1017.3
20260506205643 60 0 7.0 13.0 0.00 0.02 0.02 45 1017.4
20260506205142 60 321 6.0 11.0 0.00 0.02 0.02 44 1017.4
20260506204643 60 0 7.0 18.0 0.00 0.02 0.02 48 1017.4
20260506204142 60 0 13.0 18.0 0.00 0.02 0.02 46 1017.5
20260506203142 60 0 5.0 13.0 0.00 0.02 0.02 45 1017.6
20260506202639 60 314 6.0 16.0 0.00 0.02 0.02 45 1017.7
20260506202139 60 0 9.0 20.0 0.00 0.02 0.02 46 1017.7
20260506201639 60 10 9.0 20.0 0.00 0.02 0.02 48 1017.7
20260506201138 60 7 10.0 15.0 0.00 0.02 0.02 43 1017.7
20260506200637 60 18 9.0 14.0 0.00 0.02 0.02 48 1017.7
20260506200137 59 338 3.0 11.0 0.00 0.02 0.02 52 1017.8
20260506195635 59 24 2.0 15.0 0.00 0.02 0.02 44 1017.8
20260506195135 59 0 10.0 17.0 0.00 0.02 0.02 50 1017.9
20260506194635 59 13 10.0 17.0 0.00 0.02 0.02 43 1017.9
20260506194133 59 0 7.0 13.0 0.00 0.02 0.02 47 1017.9
20260506193633 59 337 7.0 13.0 0.00 0.02 0.02 47 1018.1